TimeMDT,TemperatureF,Dew PointF,Humidity,Sea Level PressureIn,VisibilityMPH,Wind Direction,Wind SpeedMPH,Gust SpeedMPH,PrecipitationIn,Events,Conditions,WindDirDegrees,DateUTC
12:56 AM,59.0,46.0,62,30.16,10.0,SW,3.5,-,N/A,,Unknown,230,2013-07-09 06:56:00
1:56 AM,51.1,46.9,86,30.19,10.0,South,4.6,-,N/A,,Scattered Clouds,180,2013-07-09 07:56:00
2:56 AM,50.0,46.0,86,30.20,10.0,Calm,Calm,-,N/A,,Clear,0,2013-07-09 08:56:00
3:56 AM,48.9,45.0,86,30.19,10.0,SSW,4.6,-,N/A,,Clear,200,2013-07-09 09:56:00
4:56 AM,48.9,45.0,86,30.20,10.0,SSE,3.5,-,N/A,,Clear,150,2013-07-09 10:56:00
5:56 AM,48.0,45.0,89,30.22,10.0,Calm,Calm,-,N/A,,Clear,0,2013-07-09 11:56:00
6:56 AM,51.1,46.9,86,30.23,10.0,South,3.5,-,N/A,,Clear,170,2013-07-09 12:56:00
7:56 AM,57.0,48.0,72,30.19,10.0,Calm,Calm,-,N/A,,Clear,0,2013-07-09 13:56:00
8:56 AM,62.1,48.0,60,30.19,10.0,Calm,Calm,-,N/A,,Clear,0,2013-07-09 14:56:00
9:56 AM,66.0,46.9,50,30.18,10.0,Calm,Calm,-,N/A,,Clear,0,2013-07-09 15:56:00
10:56 AM,69.1,46.0,44,30.17,10.0,ENE,3.5,-,N/A,,Clear,60,2013-07-09 16:56:00
11:56 AM,70.0,43.0,38,30.20,10.0,ESE,4.6,-,N/A,,Clear,120,2013-07-09 17:56:00
12:56 PM,73.9,41.0,30,30.19,10.0,WNW,3.5,-,N/A,,Clear,300,2013-07-09 18:56:00
1:56 PM,77.0,42.1,29,30.20,10.0,NW,6.9,-,N/A,,Clear,320,2013-07-09 19:56:00
2:56 PM,77.0,41.0,28,30.19,10.0,Calm,Calm,-,N/A,,Clear,0,2013-07-09 20:56:00
3:56 PM,79.0,39.9,25,30.18,10.0,Variable,3.5,-,N/A,,Clear,0,2013-07-09 21:56:00
4:56 PM,80.1,41.0,25,30.16,10.0,Calm,Calm,-,N/A,,Clear,0,2013-07-09 22:56:00
5:56 PM,81.0,39.0,22,30.14,10.0,Variable,3.5,-,N/A,,Clear,0,2013-07-09 23:56:00
6:56 PM,81.0,42.1,25,30.12,10.0,NE,9.2,-,N/A,,Clear,40,2013-07-10 00:56:00
7:56 PM,77.0,46.9,34,30.12,10.0,NE,9.2,-,N/A,,Clear,40,2013-07-10 01:56:00
8:56 PM,70.0,51.1,51,30.12,10.0,NE,6.9,-,N/A,,Clear,40,2013-07-10 02:56:00
9:56 PM,66.0,51.1,59,30.12,10.0,ENE,3.5,-,N/A,,Clear,70,2013-07-10 03:56:00
10:56 PM,64.0,51.1,63,30.12,10.0,East,5.8,-,N/A,,Clear,90,2013-07-10 04:56:00
11:56 PM,62.1,51.1,67,30.12,10.0,SE,8.1,-,N/A,,Clear,130,2013-07-10 05:56:00